IBE33RT LICJ-LEMD

Flight info

Callsign IBE33RT
Flight time 2h 30m
Altitude 40000
Route KAPIL DCT ADAMI DCT DOPEL DCT LUXUR DCT GENIO DCT XARON DCT OLMIR DCT NINES/N0466F390 M134 VLC/N0346F130 N733 PRADO
Aircraft A332/H-SDE3GHIJ2J3J5M1RVWXY/LB2D1

Departure

Time 2026-05-04 13:26
Airport Falcone–Borsellino Airport (LICJ)

Arrival

Time 2026-05-04 15:56
Airport Adolfo Suárez Madrid–Barajas Airport (LEMD)
Time Latitude Longitude Altitude Speed Heading
2026-05-04 13:01 38.18545 13.10610 59 ft 0 kts 336°
2026-05-04 13:16 38.18533 13.10617 59 ft 3 kts 333°
2026-05-04 13:16 38.18515 13.10630 59 ft 3 kts 323°
2026-05-04 13:16 38.18501 13.10646 59 ft 3 kts 306°
2026-05-04 13:16 38.18492 13.10667 59 ft 3 kts 271°
2026-05-04 13:17 38.18493 13.10680 59 ft 0 kts 246°
2026-05-04 13:21 38.18490 13.10672 59 ft 3 kts 246°
2026-05-04 13:21 38.18480 13.10643 59 ft 0 kts 246°
2026-05-04 13:21 38.18473 13.10623 59 ft 9 kts 246°
2026-05-04 13:22 38.18460 13.10584 60 ft 11 kts 246°
2026-05-04 13:22 38.18402 13.10508 62 ft 14 kts 202°
2026-05-04 13:22 38.18318 13.10434 61 ft 16 kts 239°
2026-05-04 13:22 38.18249 13.10366 66 ft 12 kts 185°
2026-05-04 13:23 38.18188 13.10291 61 ft 14 kts 248°
2026-05-04 13:23 38.18145 13.10160 61 ft 18 kts 247°
2026-05-04 13:23 38.18091 13.10002 61 ft 21 kts 246°
2026-05-04 13:23 38.18031 13.09824 59 ft 22 kts 248°
2026-05-04 13:24 38.17974 13.09653 61 ft 22 kts 247°
2026-05-04 13:24 38.17911 13.09466 61 ft 24 kts 247°
2026-05-04 13:24 38.17845 13.09269 74 ft 24 kts 247°
2026-05-04 13:25 38.17646 13.08862 60 ft 27 kts 217°
2026-05-04 13:25 38.17502 13.08737 67 ft 9 kts 200°
2026-05-04 13:25 38.17471 13.08779 66 ft 14 kts 93°
2026-05-04 13:25 38.17526 13.08953 67 ft 37 kts 66°
2026-05-04 13:26 38.17726 13.09525 70 ft 101 kts 67°
2026-05-04 13:26 38.18070 13.10555 93 ft 149 kts 66°
2026-05-04 13:26 38.18473 13.11795 672 ft 152 kts 67°
2026-05-04 13:26 38.18891 13.13048 1380 ft 156 kts 67°
2026-05-04 13:27 38.19331 13.14317 2035 ft 155 kts 66°
2026-05-04 13:27 38.19754 13.15562 2617 ft 156 kts 66°
2026-05-04 13:27 38.20200 13.16881 3060 ft 166 kts 67°
2026-05-04 13:27 38.20673 13.18233 3557 ft 173 kts 63°
2026-05-04 13:28 38.21383 13.19507 4069 ft 180 kts 45°
2026-05-04 13:28 38.22427 13.20416 4609 ft 185 kts 25°
2026-05-04 13:28 38.23622 13.21090 5194 ft 191 kts 21°
2026-05-04 13:28 38.24873 13.21735 5745 ft 198 kts 20°
2026-05-04 13:29 38.26171 13.22403 6298 ft 206 kts 21°
2026-05-04 13:29 38.27544 13.23118 6815 ft 220 kts 21°
2026-05-04 13:29 38.29001 13.23884 7276 ft 241 kts 21°
2026-05-04 13:29 38.30681 13.24602 7626 ft 267 kts 10°
2026-05-04 13:30 38.32577 13.24769 8237 ft 279 kts 352°
2026-05-04 13:30 38.34376 13.23905 9090 ft 280 kts 321°
2026-05-04 13:30 38.35599 13.21992 10033 ft 281 kts 297°
2026-05-04 13:30 38.36341 13.19655 10677 ft 293 kts 286°
2026-05-04 13:31 38.36828 13.17030 11028 ft 315 kts 280°
2026-05-04 13:31 38.37194 13.14183 11415 ft 334 kts 278°
2026-05-04 13:31 38.37542 13.11207 12037 ft 343 kts 279°
2026-05-04 13:31 38.37919 13.08189 12821 ft 347 kts 279°
2026-05-04 13:32 38.38340 13.05149 13605 ft 350 kts 281°
2026-05-04 13:32 38.38798 13.02091 14327 ft 353 kts 281°
2026-05-04 13:32 38.39285 12.99003 15006 ft 356 kts 282°
2026-05-04 13:32 38.39782 12.95936 15678 ft 359 kts 282°
2026-05-04 13:33 38.40293 12.92808 16362 ft 362 kts 282°
2026-05-04 13:33 38.40810 12.89646 17056 ft 365 kts 282°
2026-05-04 13:33 38.41328 12.86462 17724 ft 367 kts 282°
2026-05-04 13:33 38.41846 12.83261 18381 ft 370 kts 282°
2026-05-04 13:34 38.42368 12.80020 18939 ft 373 kts 282°
2026-05-04 13:34 38.42890 12.76768 19510 ft 375 kts 282°
2026-05-04 13:34 38.43408 12.73529 20070 ft 378 kts 282°
2026-05-04 13:34 38.43933 12.70234 20633 ft 380 kts 282°
2026-05-04 13:35 38.44463 12.66908 21191 ft 382 kts 282°
2026-05-04 13:35 38.45522 12.60233 22288 ft 386 kts 282°
2026-05-04 13:35 38.46056 12.56861 22830 ft 388 kts 282°
2026-05-04 13:36 38.46412 12.54614 23176 ft 390 kts 282°
2026-05-04 13:36 38.47125 12.50095 23824 ft 393 kts 282°
2026-05-04 13:36 38.47664 12.46669 24246 ft 395 kts 282°
2026-05-04 13:36 38.48206 12.43224 24672 ft 397 kts 282°
2026-05-04 13:37 38.48573 12.40881 24952 ft 398 kts 282°
2026-05-04 13:37 38.49112 12.37442 25349 ft 401 kts 282°
2026-05-04 13:37 38.49658 12.33947 25763 ft 403 kts 282°
2026-05-04 13:37 38.50207 12.30426 26180 ft 404 kts 282°
2026-05-04 13:38 38.50756 12.26897 26581 ft 406 kts 282°
2026-05-04 13:38 38.51308 12.23347 26981 ft 408 kts 282°
2026-05-04 13:38 38.51860 12.19783 27378 ft 410 kts 282°
2026-05-04 13:38 38.52413 12.16206 27765 ft 411 kts 282°
2026-05-04 13:39 38.52969 12.12605 28146 ft 413 kts 282°
2026-05-04 13:39 38.53525 12.08993 28521 ft 415 kts 282°
2026-05-04 13:39 38.54075 12.05413 28886 ft 417 kts 282°
2026-05-04 13:39 38.54634 12.01772 29252 ft 418 kts 282°
2026-05-04 13:40 38.55193 11.98113 29635 ft 420 kts 282°
2026-05-04 13:40 38.55753 11.94445 29984 ft 422 kts 282°
2026-05-04 13:40 38.56316 11.90754 30308 ft 424 kts 282°
2026-05-04 13:40 38.56879 11.87048 30590 ft 426 kts 282°
2026-05-04 13:41 38.57444 11.83324 30884 ft 427 kts 282°
2026-05-04 13:41 38.58008 11.79593 31166 ft 429 kts 282°
2026-05-04 13:41 38.58575 11.75840 31466 ft 430 kts 282°
2026-05-04 13:42 38.59702 11.68345 32274 ft 427 kts 282°
2026-05-04 13:42 38.60259 11.64624 32727 ft 424 kts 282°
2026-05-04 13:42 38.60804 11.60977 33161 ft 422 kts 282°
2026-05-04 13:42 38.61354 11.57294 33563 ft 420 kts 282°
2026-05-04 13:43 38.61899 11.53636 33963 ft 418 kts 282°
2026-05-04 13:43 38.62442 11.49980 34323 ft 416 kts 282°
2026-05-04 13:43 38.62982 11.46343 34620 ft 416 kts 282°
2026-05-04 13:43 38.63520 11.42708 34908 ft 415 kts 282°
2026-05-04 13:44 38.64057 11.39068 35188 ft 415 kts 282°
2026-05-04 13:44 38.64591 11.35446 35458 ft 415 kts 282°
2026-05-04 13:44 38.65117 11.31867 35730 ft 414 kts 282°
2026-05-04 13:44 38.65648 11.28244 36005 ft 414 kts 281°
2026-05-04 13:45 38.66178 11.24625 36273 ft 414 kts 281°
2026-05-04 13:45 38.66706 11.21009 36552 ft 413 kts 281°
2026-05-04 13:45 38.67231 11.17401 36809 ft 412 kts 281°
2026-05-04 13:45 38.67757 11.13785 37083 ft 412 kts 281°
2026-05-04 13:46 38.68279 11.10184 37353 ft 412 kts 281°
2026-05-04 13:46 38.68801 11.06572 37617 ft 411 kts 281°
2026-05-04 13:46 38.69319 11.02981 37887 ft 410 kts 281°
2026-05-04 13:46 38.69836 10.99389 38133 ft 410 kts 280°
2026-05-04 13:47 38.70182 10.95819 38377 ft 410 kts 274°
2026-05-04 13:47 38.70189 10.92161 38614 ft 410 kts 269°
2026-05-04 13:47 38.70008 10.88514 38831 ft 410 kts 267°
2026-05-04 13:47 38.69760 10.84870 39011 ft 410 kts 266°
2026-05-04 13:48 38.69477 10.81235 39182 ft 411 kts 266°
2026-05-04 13:48 38.69179 10.77599 39355 ft 411 kts 266°
2026-05-04 13:48 38.68877 10.73956 39523 ft 411 kts 266°
2026-05-04 13:48 38.68578 10.70323 39680 ft 411 kts 266°
2026-05-04 13:49 38.68285 10.66718 39842 ft 411 kts 266°
2026-05-04 13:49 38.67993 10.63083 39997 ft 411 kts 266°
2026-05-04 13:49 38.67407 10.55764 40049 ft 415 kts 265°
2026-05-04 13:50 38.66818 10.48426 40050 ft 414 kts 265°
2026-05-04 13:50 38.66224 10.41110 40061 ft 413 kts 265°
2026-05-04 13:51 38.65629 10.33831 40052 ft 413 kts 265°
2026-05-04 13:51 38.65026 10.26521 40048 ft 413 kts 265°
2026-05-04 13:52 38.64114 10.15564 40048 ft 413 kts 265°
2026-05-04 13:53 38.63499 10.08250 40048 ft 413 kts 265°
2026-05-04 13:53 38.62880 10.00940 40047 ft 413 kts 265°
2026-05-04 13:54 38.61944 9.89983 40045 ft 413 kts 265°
2026-05-04 13:55 38.60997 9.79033 40042 ft 412 kts 265°
2026-05-04 13:55 38.60046 9.68151 40038 ft 412 kts 265°
2026-05-04 13:56 38.59405 9.60879 40035 ft 411 kts 265°
2026-05-04 13:57 38.58435 9.49977 40037 ft 411 kts 265°
2026-05-04 13:58 38.57131 9.35492 40037 ft 408 kts 264°
2026-05-04 13:58 38.56146 9.24692 40035 ft 408 kts 264°
2026-05-04 13:59 38.55487 9.17524 40036 ft 408 kts 264°
2026-05-04 14:00 38.54484 9.06710 40038 ft 408 kts 264°
2026-05-04 14:00 38.53477 8.95958 40034 ft 407 kts 264°
2026-05-04 14:01 38.52807 8.88764 40032 ft 407 kts 265°
2026-05-04 14:02 38.52318 8.77941 40032 ft 407 kts 268°
2026-05-04 14:02 38.52116 8.70717 40030 ft 407 kts 268°
2026-05-04 14:03 38.51883 8.63485 40030 ft 407 kts 268°
2026-05-04 14:03 38.51624 8.56245 40028 ft 407 kts 267°
2026-05-04 14:04 38.51219 8.45447 40029 ft 407 kts 267°
2026-05-04 14:04 38.50942 8.38214 40029 ft 407 kts 267°
2026-05-04 14:05 38.50521 8.27378 40028 ft 407 kts 267°
2026-05-04 14:06 38.50235 8.20160 40029 ft 407 kts 267°
2026-05-04 14:06 38.49945 8.12946 40017 ft 406 kts 267°
2026-05-04 14:07 38.49652 8.05778 40024 ft 406 kts 267°
2026-05-04 14:07 38.49352 7.98567 40026 ft 406 kts 266°
2026-05-04 14:08 38.49049 7.91364 40022 ft 405 kts 266°
2026-05-04 14:08 38.48743 7.84185 40022 ft 405 kts 266°
2026-05-04 14:09 38.48276 7.73464 40021 ft 405 kts 266°
2026-05-04 14:10 38.47798 7.62693 40029 ft 405 kts 266°
2026-05-04 14:10 38.47474 7.55526 40021 ft 404 kts 266°
2026-05-04 14:11 38.47147 7.48380 40025 ft 402 kts 266°
2026-05-04 14:11 38.46651 7.37734 40025 ft 402 kts 266°
2026-05-04 14:12 38.46314 7.30604 40021 ft 402 kts 266°
2026-05-04 14:13 38.45800 7.19909 40018 ft 402 kts 266°
2026-05-04 14:13 38.45452 7.12777 40025 ft 402 kts 266°
2026-05-04 14:14 38.45099 7.05648 40016 ft 402 kts 265°
2026-05-04 14:14 38.44565 6.95004 40011 ft 402 kts 265°
2026-05-04 14:15 38.43837 6.80801 40027 ft 401 kts 265°
2026-05-04 14:16 38.43280 6.70152 40021 ft 401 kts 265°
2026-05-04 14:17 38.42715 6.59554 40010 ft 401 kts 265°
2026-05-04 14:18 38.42138 6.48893 40011 ft 401 kts 265°
2026-05-04 14:19 38.41357 6.34750 40007 ft 401 kts 264°
2026-05-04 14:19 38.40958 6.27641 40015 ft 401 kts 264°
2026-05-04 14:20 38.40556 6.20548 40013 ft 401 kts 264°
2026-05-04 14:20 38.40149 6.13453 40004 ft 401 kts 264°
2026-05-04 14:21 38.39530 6.02803 40004 ft 401 kts 264°
2026-05-04 14:21 38.39115 5.95739 40007 ft 401 kts 264°
2026-05-04 14:22 38.38693 5.88650 40004 ft 401 kts 264°
2026-05-04 14:22 38.38266 5.81546 40004 ft 401 kts 264°
2026-05-04 14:23 38.38054 5.78043 40005 ft 401 kts 264°
2026-05-04 14:24 38.37800 5.73856 40005 ft 401 kts 264°
2026-05-04 14:24 38.37439 5.67966 40007 ft 401 kts 264°
2026-05-04 14:25 38.36928 5.59724 40008 ft 401 kts 264°
2026-05-04 14:25 38.36337 5.50293 40007 ft 401 kts 264°
2026-05-04 14:26 38.35888 5.43211 40004 ft 401 kts 264°
2026-05-04 14:26 38.35435 5.36133 40004 ft 401 kts 264°
2026-05-04 14:27 38.34978 5.29047 40008 ft 401 kts 263°
2026-05-04 14:27 38.34516 5.21965 40007 ft 401 kts 263°
2026-05-04 14:28 38.34049 5.14883 40005 ft 401 kts 263°
2026-05-04 14:28 38.33582 5.07849 40004 ft 401 kts 263°
2026-05-04 14:29 38.32629 4.93698 40014 ft 401 kts 263°
2026-05-04 14:30 38.32146 4.86630 40003 ft 400 kts 263°
2026-05-04 14:31 38.31417 4.76067 40002 ft 400 kts 263°
2026-05-04 14:32 38.30426 4.61931 40001 ft 401 kts 263°
2026-05-04 14:32 38.29925 4.54867 40006 ft 401 kts 263°
2026-05-04 14:33 38.29418 4.47796 40001 ft 401 kts 263°
2026-05-04 14:33 38.28911 4.40767 39996 ft 401 kts 263°
2026-05-04 14:34 38.28396 4.33703 39998 ft 401 kts 263°
2026-05-04 14:34 38.27876 4.26617 39993 ft 401 kts 263°
2026-05-04 14:35 38.27353 4.19550 39993 ft 401 kts 263°
2026-05-04 14:35 38.26825 4.12482 39993 ft 401 kts 263°
2026-05-04 14:36 38.26296 4.05459 39992 ft 401 kts 262°
2026-05-04 14:36 38.25759 3.98380 39997 ft 401 kts 262°
2026-05-04 14:37 38.25219 3.91314 40001 ft 401 kts 262°
2026-05-04 14:37 38.24673 3.84236 39989 ft 401 kts 262°
2026-05-04 14:38 38.24123 3.77156 39991 ft 403 kts 262°
2026-05-04 14:38 38.23567 3.70065 39990 ft 405 kts 262°
2026-05-04 14:39 38.23004 3.62932 39992 ft 406 kts 262°
2026-05-04 14:39 38.22436 3.55784 39988 ft 406 kts 262°
2026-05-04 14:40 38.21768 3.45045 39988 ft 408 kts 269°
2026-05-04 14:40 38.22685 3.37880 39987 ft 415 kts 282°
2026-05-04 14:41 38.24557 3.30951 39981 ft 418 kts 285°
2026-05-04 14:42 38.28689 3.17092 39982 ft 418 kts 286°
2026-05-04 14:42 38.31089 3.10292 39982 ft 421 kts 290°
2026-05-04 14:43 38.33626 3.03553 39984 ft 422 kts 290°
2026-05-04 14:43 38.36178 2.96841 39978 ft 425 kts 290°
2026-05-04 14:44 38.38751 2.90058 39977 ft 425 kts 290°
2026-05-04 14:44 38.41320 2.83262 39971 ft 425 kts 290°
2026-05-04 14:45 38.43883 2.76462 39975 ft 425 kts 290°
2026-05-04 14:45 38.46442 2.69657 39964 ft 425 kts 290°
2026-05-04 14:46 38.48979 2.62896 39967 ft 424 kts 290°
2026-05-04 14:46 38.51525 2.56096 39966 ft 423 kts 290°
2026-05-04 14:47 38.54064 2.49298 39964 ft 423 kts 290°
2026-05-04 14:47 38.56596 2.42508 39958 ft 423 kts 290°
2026-05-04 14:48 38.59114 2.35739 39958 ft 423 kts 290°
2026-05-04 14:48 38.61641 2.28935 39976 ft 423 kts 290°
2026-05-04 14:49 38.64163 2.22129 39959 ft 422 kts 289°
2026-05-04 14:49 38.66650 2.15401 39952 ft 421 kts 289°
2026-05-04 14:50 38.69149 2.08614 39952 ft 421 kts 289°
2026-05-04 14:50 38.71638 2.01835 39952 ft 421 kts 289°
2026-05-04 14:51 38.74128 1.95043 39946 ft 420 kts 289°
2026-05-04 14:51 38.76597 1.88290 39950 ft 420 kts 289°
2026-05-04 14:52 38.79075 1.81502 39947 ft 420 kts 289°
2026-05-04 14:52 38.81552 1.74696 39952 ft 420 kts 289°
2026-05-04 14:53 38.84023 1.67893 39955 ft 420 kts 289°
2026-05-04 14:53 38.86475 1.61129 39958 ft 420 kts 289°
2026-05-04 14:54 38.88942 1.54307 39978 ft 420 kts 288°
2026-05-04 14:54 38.91391 1.47498 39968 ft 419 kts 287°
2026-05-04 14:55 38.93587 1.40637 39967 ft 417 kts 285°
2026-05-04 14:55 38.95648 1.33670 39966 ft 416 kts 284°
2026-05-04 14:56 38.97704 1.26704 39953 ft 417 kts 285°
2026-05-04 14:56 38.99777 1.19749 39945 ft 417 kts 285°
2026-05-04 14:57 39.01862 1.12783 39953 ft 417 kts 285°
2026-05-04 14:57 39.03929 1.05866 39928 ft 416 kts 285°
2026-05-04 14:58 39.06000 0.98912 39918 ft 416 kts 284°
2026-05-04 14:58 39.08066 0.91953 39916 ft 416 kts 284°
2026-05-04 14:59 39.10131 0.84983 39911 ft 416 kts 284°
2026-05-04 15:00 39.13216 0.74532 39920 ft 417 kts 284°
2026-05-04 15:00 39.15272 0.67541 39908 ft 418 kts 284°
2026-05-04 15:01 39.18349 0.57047 39903 ft 418 kts 284°
2026-05-04 15:01 39.20402 0.50027 39903 ft 418 kts 284°
2026-05-04 15:02 39.22449 0.43006 39900 ft 418 kts 284°
2026-05-04 15:02 39.24480 0.36023 39909 ft 418 kts 284°
2026-05-04 15:03 39.26518 0.28999 39898 ft 418 kts 284°
2026-05-04 15:03 39.28561 0.21936 39897 ft 418 kts 284°
2026-05-04 15:04 39.30584 0.14926 39896 ft 418 kts 284°
2026-05-04 15:04 39.32615 0.07868 39895 ft 418 kts 284°
2026-05-04 15:05 39.34641 0.00807 39898 ft 418 kts 284°
2026-05-04 15:05 39.36647 -0.06216 39896 ft 422 kts 284°
2026-05-04 15:06 39.38682 -0.13353 39902 ft 424 kts 284°
2026-05-04 15:07 39.41744 -0.24113 39907 ft 424 kts 284°
2026-05-04 15:07 39.42446 -0.26587 39905 ft 424 kts 284°
2026-05-04 15:10 39.43553 -0.30494 39905 ft 424 kts 284°
2026-05-04 15:19 39.45144 -0.36125 39912 ft 424 kts 284°
2026-05-04 15:20 39.47164 -0.43288 39909 ft 423 kts 284°
2026-05-04 15:20 39.49532 -0.50307 39909 ft 429 kts 291°
2026-05-04 15:21 39.52428 -0.57092 39910 ft 431 kts 293°
2026-05-04 15:22 39.56914 -0.67193 39911 ft 431 kts 293°
2026-05-04 15:22 39.61375 -0.77280 39926 ft 432 kts 294°
2026-05-04 15:23 39.64366 -0.84090 39912 ft 434 kts 294°
2026-05-04 15:23 39.64746 -0.84956 39912 ft 434 kts 294°
2026-05-04 15:27 39.68495 -0.93517 39925 ft 435 kts 294°
2026-05-04 15:28 39.72974 -1.03784 39938 ft 435 kts 293°
2026-05-04 15:29 39.77439 -1.14047 39939 ft 435 kts 293°
2026-05-04 15:30 39.87891 -1.38135 39949 ft 438 kts 294°
2026-05-04 15:31 39.92360 -1.48510 39958 ft 438 kts 294°
2026-05-04 15:32 39.99790 -1.65835 39974 ft 438 kts 294°
2026-05-04 15:34 40.07201 -1.83209 39980 ft 438 kts 294°
2026-05-04 15:34 40.11618 -1.93616 39978 ft 438 kts 294°
2026-05-04 15:35 40.16044 -2.04068 39970 ft 438 kts 294°
2026-05-04 15:36 40.20468 -2.14535 39963 ft 438 kts 294°
2026-05-04 15:36 40.23414 -2.21521 39982 ft 438 kts 294°
2026-05-04 15:37 40.26341 -2.28481 39969 ft 439 kts 294°
2026-05-04 15:37 40.29284 -2.35494 39959 ft 439 kts 294°
2026-05-04 15:38 40.32220 -2.42508 39959 ft 439 kts 294°
2026-05-04 15:38 40.35159 -2.49544 39950 ft 439 kts 294°
2026-05-04 15:39 40.38727 -2.56065 39953 ft 452 kts 314°
2026-05-04 15:40 40.46407 -2.63341 39952 ft 458 kts 319°
2026-05-04 15:40 40.51592 -2.68219 39953 ft 458 kts 319°
2026-05-04 15:41 40.56756 -2.73139 39948 ft 457 kts 318°
2026-05-04 15:41 40.61864 -2.78028 39944 ft 444 kts 318°
2026-05-04 15:41 40.64328 -2.80382 39940 ft 431 kts 317°
2026-05-04 15:42 40.66440 -2.83003 39935 ft 405 kts 301°
2026-05-04 15:42 40.67936 -2.86059 39938 ft 392 kts 295°
2026-05-04 15:42 40.69289 -2.89163 39943 ft 390 kts 295°
2026-05-04 15:43 40.72000 -2.95310 39948 ft 391 kts 295°
2026-05-04 15:43 40.74799 -3.01486 39947 ft 392 kts 296°
2026-05-04 15:43 40.75703 -3.03465 41426 ft 0 kts 296°
2026-05-04 15:44 40.76729 -3.05999 27967 ft 362 kts 296°
2026-05-04 15:44 40.77992 -3.08726 28104 ft 346 kts 297°
2026-05-04 15:44 40.79199 -3.11267 27880 ft 0 kts 297°
2026-05-04 15:45 40.79971 -3.13160 19251 ft 326 kts 297°
2026-05-04 15:45 40.81148 -3.15675 19042 ft 317 kts 299°
2026-05-04 15:45 40.82309 -3.18094 18858 ft 307 kts 299°
2026-05-04 15:45 40.83426 -3.20452 18707 ft 298 kts 298°
2026-05-04 15:46 40.84498 -3.22750 18564 ft 288 kts 298°
2026-05-04 15:46 40.85529 -3.24979 18425 ft 279 kts 298°
2026-05-04 15:46 40.86524 -3.27142 18106 ft 272 kts 297°
2026-05-04 15:46 40.87505 -3.29283 17348 ft 274 kts 297°
2026-05-04 15:47 40.88492 -3.31451 16331 ft 284 kts 298°
2026-05-04 15:47 40.89515 -3.33693 15559 ft 284 kts 298°
2026-05-04 15:47 40.90557 -3.35983 14770 ft 301 kts 298°
2026-05-04 15:47 40.91688 -3.38472 14516 ft 331 kts 298°
2026-05-04 15:48 40.92988 -3.41107 14053 ft 349 kts 301°
2026-05-04 15:48 40.94099 -3.44005 13004 ft 358 kts 286°
2026-05-04 15:48 40.94920 -3.50304 12223 ft 334 kts 268°
2026-05-04 15:49 40.94617 -3.53240 12000 ft 320 kts 252°
2026-05-04 15:49 40.93484 -3.55684 11764 ft 310 kts 224°
2026-05-04 15:49 40.91634 -3.57024 11568 ft 304 kts 195°
2026-05-04 15:49 40.89542 -3.57040 11354 ft 299 kts 175°
2026-05-04 15:50 40.87503 -3.56557 11064 ft 294 kts 172°
2026-05-04 15:50 40.85490 -3.56181 10651 ft 291 kts 179°
2026-05-04 15:50 40.83450 -3.56130 10004 ft 297 kts 183°
2026-05-04 15:50 40.81347 -3.56189 9207 ft 307 kts 183°
2026-05-04 15:51 40.79188 -3.56187 8408 ft 314 kts 182°
2026-05-04 15:51 40.76975 -3.56145 7622 ft 320 kts 181°
2026-05-04 15:51 40.74769 -3.56121 6862 ft 318 kts 181°
2026-05-04 15:51 40.72589 -3.56106 6093 ft 308 kts 182°
2026-05-04 15:52 40.70476 -3.56089 5380 ft 298 kts 182°
2026-05-04 15:52 40.68457 -3.56069 4929 ft 281 kts 183°
2026-05-04 15:52 40.66585 -3.56051 4601 ft 255 kts 182°
2026-05-04 15:52 40.64929 -3.56035 4358 ft 221 kts 183°
2026-05-04 15:53 40.63468 -3.56023 4103 ft 200 kts 184°
2026-05-04 15:53 40.62139 -3.56014 3825 ft 182 kts 184°
2026-05-04 15:53 40.60932 -3.56004 3583 ft 166 kts 185°
2026-05-04 15:53 40.59849 -3.55995 3373 ft 149 kts 186°
2026-05-04 15:54 40.58874 -3.55988 3173 ft 133 kts 185°
2026-05-04 15:54 40.57973 -3.55982 3000 ft 127 kts 186°
2026-05-04 15:54 40.57089 -3.55977 2837 ft 127 kts 186°
2026-05-04 15:54 40.56213 -3.55971 2674 ft 125 kts 186°
2026-05-04 15:55 40.55339 -3.55959 2508 ft 125 kts 186°
2026-05-04 15:55 40.54481 -3.55942 2370 ft 127 kts 185°
2026-05-04 15:55 40.53588 -3.55945 2142 ft 126 kts 185°
2026-05-04 15:55 40.52721 -3.55939 1991 ft 124 kts 184°
2026-05-04 15:56 40.51919 -3.55937 1959 ft 96 kts 179°
2026-05-04 15:56 40.51394 -3.55929 1955 ft 64 kts 179°
2026-05-04 15:56 40.50994 -3.55928 1964 ft 51 kts 180°
2026-05-04 15:56 40.50685 -3.55932 1973 ft 39 kts 181°
2026-05-04 15:57 40.50437 -3.55986 1968 ft 34 kts 205°
2026-05-04 15:57 40.50245 -3.56134 1962 ft 30 kts 218°
2026-05-04 15:57 40.50149 -3.56262 1965 ft 10 kts 181°
2026-05-04 15:57 40.50072 -3.56258 1965 ft 12 kts 178°
2026-05-04 15:58 40.49979 -3.56254 1965 ft 14 kts 178°
2026-05-04 15:58 40.49875 -3.56250 1965 ft 16 kts 179°
2026-05-04 15:58 40.49761 -3.56250 1965 ft 17 kts 180°
2026-05-04 15:58 40.49637 -3.56251 1965 ft 19 kts 180°
2026-05-04 15:59 40.49503 -3.56253 1965 ft 19 kts 180°
2026-05-04 15:59 40.49373 -3.56246 1965 ft 18 kts 180°
2026-05-04 15:59 40.49242 -3.56247 1965 ft 17 kts 181°
2026-05-04 15:59 40.49211 -3.56248 1966 ft 7 kts 181°
2026-05-04 16:00 40.49158 -3.56260 1966 ft 6 kts 213°
2026-05-04 16:00 40.49151 -3.56283 1966 ft 0 kts 269°
2026-05-04 16:00 40.49151 -3.56321 1967 ft 7 kts 270°
2026-05-04 16:00 40.49151 -3.56350 1968 ft 0 kts 270°
2026-05-04 16:01 40.49151 -3.56354 1968 ft 2 kts 270°
2026-05-04 16:01 40.49151 -3.56356 1968 ft 0 kts 270°